Dewpoint
-5 -6 -7 -9 -10 -9 -10 -8 -9 -10 -10 -12 -13 -7 -4 -4 -7 -13 -11 -15 -7 -9 -10 -5 -0 2 2 2 3 2 1 0 -1 -2 -3 -0 -0 -0 0 0 2 2 3 4 3 3 5 1 -0 1 2 1 1 1
-9 -9 -9 -8 -9 -6 -7 -8 -9 -9 -10 -11 -15 -11 -5 -4 -6 -10 -5 -6 -6 -3 -9 -12 -5 1 2 2 2 3 2 1 -0 -1 1 -0 1 1 1 4 1 4 2 4 3 4 3 2 1 0 0 1 1 1
-11 -10 -7 -8 -9 -7 -7 -8 -8 -9 -10 -12 -14 -14 -5 -4 -5 -8 -8 -10 -3 -2 -5 1 2 3 3 4 4 4 0 2 2 2 1 1 3 2 2 3 3 2 2 4 1 2 2 1 1 1 1 1 0 -2
-8 -7 -6 -8 -8 -8 -8 -8 -9 -9 -11 -12 -13 -14 -6 -4 -5 -7 -10 -8 -2 -2 -2 1 2 3 3 4 4 3 3 4 3 3 2 1 2 2 2 2 3 2 1 3 3 2 1 1 1 0 -1 -2 -4 -5
-9 -10 -11 -9 -8 -8 -10 -9 -9 -9 -11 -12 -13 -14 -5 -6 -5 -7 -13 -1 -6 -6 -1 -1 1 4 5 4 3 3 3 4 3 3 2 4 3 2 1 1 3 1 2 2 2 1 0 1 -0 -2 -5 -6 -6 -5
-11 -13 -11 -7 -7 -9 -9 -12 -10 -10 -11 -12 -12 -13 -7 -6 -5 -7 -8 -1 -3 -2 -3 1 2 3 5 4 3 3 4 4 3 2 3 3 3 3 3 4 1 2 1 -0 0 1 1 -0 -2 -6 -7 -6 -6 -6
-12 -12 -8 -7 -8 -10 -9 -10 -13 -10 -10 -12 -12 -13 -9 -6 -5 -4 -10 -7 -9 -5 -3 -0 2 3 4 4 3 3 2 3 4 3 3 3 2 2 1 4 1 1 0 -0 1 0 -1 -2 -5 -6 -6 -6 -6 -6
-11 -13 -8 -7 -9 -11 -10 -10 -13 -12 -10 -12 -13 -12 -9 -8 -7 -7 -10 -13 -8 -2 -1 1 2 3 3 4 2 2 3 4 4 3 3 3 3 3 3 1 1 1 -0 0 0 -2 -3 -5 -6 -6 -7 -7 -8 -7
-13 -12 -8 -8 -9 -11 -11 -10 -12 -12 -11 -12 -12 -11 -11 -9 -8 -9 -13 -10 -6 -2 -1 0 3 4 3 4 2 2 2 1 3 2 3 2 3 3 2 1 1 0 0 0 -1 -3 -4 -6 -6 -8 -7 -8 -9 -8
-12 -11 -10 -9 -10 -10 -12 -11 -12 -11 -11 -11 -9 -8 -7 -10 -16 -16 -3 -1 -1 -1 -1 0 1 3 4 2 1 1 1 1 2 3 3 1 0 3 1 0 0 -0 -0 -1 -1 -3 -5 -6 -7 -8 -8 -8 -8 -8
-12 -11 -11 -9 -10 -11 -12 -12 -11 -10 -10 -6 -4 -6 -11 -13 -11 -2 -2 -0 0 1 1 1 2 3 3 3 0 0 -0 0 -1 3 3 1 3 3 1 1 1 0 -0 -1 -4 -5 -6 -7 -8 -7 -7 -7 -8 -14
-10 -11 -10 -9 -8 -10 -13 -11 -11 -8 -4 -4 -6 -9 -12 -6 -3 -4 -4 -2 1 1 1 2 2 3 3 3 1 1 0 1 0 3 4 3 2 3 2 1 1 0 -0 -1 -3 -5 -6 -8 -8 -7 -6 -7 -11 -13
-9 -11 -10 -10 -9 -12 -12 -10 -11 -7 -6 -5 -6 -9 -8 -6 -5 -4 -2 -1 2 -1 -0 -1 1 3 4 3 1 1 2 3 2 4 2 2 2 3 2 1 1 1 0 -1 -3 -5 -7 -8 -9 -14 -13 -11 -15 -19
-11 -11 -10 -9 -10 -12 -11 -10 -9 -6 -6 -4 -6 -8 -9 -9 -9 -5 -2 -2 -1 -1 -1 -2 0 3 2 1 1 2 2 2 5 6 5 3 2 2 2 2 1 1 1 0 -2 -8 -19 -20 -19 -19 -19 -19 -18 -19
-12 -12 -11 -9 -10 -12 -10 -9 -8 -5 -5 -5 -6 -8 -12 -13 -7 -2 -3 -3 -6 -5 -4 -1 1 3 2 2 1 2 4 4 3 2 2 2 3 3 3 1 1 1 1 0 -3 -13 -21 -22 -21 -20 -18 -19 -19 -19
-11 -11 -10 -9 -10 -13 -9 -8 -5 -5 -5 -5 -6 -9 -11 -9 -10 -7 -7 -9 -10 -7 -1 -0 1 4 4 1 3 3 3 4 -0 0 1 2 3 3 2 1 1 -0 1 -0 -6 -15 -22 -22 -22 -21 -20 -19 -19 -19
-10 -7 -9 -10 -12 -13 -8 -7 -5 -5 -4 -6 -8 -9 -10 -9 -7 -7 -9 -9 -9 -10 -4 -0 1 2 0 3 3 2 3 2 -1 -1 -0 3 3 3 2 1 1 0 1 -0 -5 -14 -21 -22 -22 -22 -20 -19 -19 -19
-8 -7 -10 -12 -13 -8 -5 -5 -5 -5 -5 -6 -8 -10 -7 -9 -9 -10 -8 -7 -11 -10 -7 -4 -3 0 2 2 2 1 1 0 0 1 2 3 3 3 2 1 1 -0 0 -0 -2 -13 -19 -20 -22 -22 -21 -20 -19 -18
-8 -10 -12 -10 -8 -6 -5 -6 -5 -5 -6 -8 -8 -8 -7 -9 -7 -8 -9 -9 -8 -8 -6 -5 -3 -0 2 1 2 1 -0 -3 -1 2 3 3 4 4 3 1 0 0 0 -1 -1 -8 -16 -22 -22 -20 -20 -20 -19 -19
-10 -13 -8 -6 -7 -7 -5 -5 -5 -5 -7 -8 -8 -8 -8 -11 -11 -8 -9 -9 -9 -6 -7 -6 -10 -7 -0 -5 -9 -7 -4 -6 -2 1 2 3 4 4 3 1 1 0 0 -1 -1 -4 -9 -14 -15 -15 -16 -20 -19 -18
-10 -7 -6 -5 -5 -5 -5 -5 -5 -9 -9 -8 -8 -8 -9 -9 -8 -10 -9 -10 -8 -8 -9 -10 -11 -12 -14 -20 -12 -8 -6 -8 -4 -2 2 3 3 4 3 2 1 1 0 0 -0 -1 -6 -12 -18 -20 -21 -21 -20 -18
-6 -5 -5 -5 -5 -5 -6 -5 -5 -5 -6 -6 -6 -7 -8 -9 -10 -10 -8 -10 -9 -10 -10 -10 -12 -13 -17 -18 -15 -9 -9 -9 -9 -0 4 3 3 3 3 2 2 1 0 0 0 -1 -4 -6 -14 -22 -23 -22 -21 -20
-5 -6 -5 -5 -6 -5 -6 -6 -5 -4 -6 -6 -6 -6 -7 -8 -9 -9 -9 -10 -11 -10 -10 -11 -13 -14 -7 -10 -15 -15 -12 -10 -7 1 4 3 3 3 3 3 2 2 1 0 -0 -1 -3 -5 -10 -20 -22 -23 -22 -21
-5 -5 -5 -6 -6 -6 -5 -5 -6 -7 -8 -8 -7 -9 -11 -11 -12 -9 -9 -13 -14 -13 -11 -9 -7 -6 -6 -6 -16 -15 -15 -9 -3 2 1 4 3 3 3 2 2 2 1 1 -0 -1 -1 -3 -6 -12 -17 -23 -24 -23
-5 -6 -6 -6 -6 -7 -7 -7 -8 -8 -6 -10 -11 -11 -12 -12 -12 -12 -13 -15 -16 -16 -14 -9 -4 -3 -3 -5 -8 -8 -8 -4 -3 0 2 2 3 3 3 2 2 2 2 1 1 0 -1 -2 -4 -5 -11 -19 -24 -24
-5 -6 -6 -7 -7 -8 -8 -6 -7 -7 -8 -8 -10 -12 -11 -11 -12 -12 -15 -12 -2 -2 -2 -3 -2 0 -0 -0 -1 -1 -3 -2 0 1 2 0 1 2 3 3 2 2 2 2 1 0 -1 -2 -3 -4 -5 -9 -13 -19
-6 -6 -7 -9 -10 -10 -9 -9 -9 -8 -7 -7 -11 -10 -9 -8 -9 -15 -16 -10 -2 -2 -3 -6 -6 -6 -6 -5 -3 -2 -0 0 -0 0 2 1 1 1 1 2 2 1 1 2 1 1 -1 -1 -2 -2 -4 -6 -10 -14
-7 -8 -7 -8 -8 -10 -7 -8 -7 -7 -10 -12 -10 -7 -7 -7 -11 -14 -5 -4 -2 -2 -7 -11 -10 -11 -11 -10 -8 -5 -3 -3 -0 1 -1 0 1 1 -0 1 2 2 2 1 1 1 1 -0 -1 -1 -2 -4 -6 -9
-8 -9 -8 -6 -7 -8 -7 -8 -9 -11 -12 -12 -9 -11 -13 -14 -14 -13 -12 -11 -13 -15 -19 -20 -24 -20 -16 -14 -14 -11 -5 -0 3 3 2 2 1 0 -1 -2 2 2 2 2 1 1 1 1 0 0 -0 -1 -1 -2
-8 -9 -8 -7 -7 -7 -8 -9 -9 -10 -8 -9 -10 -10 -11 -12 -17 -20 -16 -13 -12 -15 -22 -23 -25 -20 -19 -19 -18 -12 -6 -3 2 1 0 1 -0 -1 -1 -2 -3 -1 2 2 2 2 1 1 1 1 0 0 -0 -0
-8 -8 -8 -9 -9 -9 -9 -12 -13 -14 -14 -11 -11 -9 -11 -14 -14 -16 -17 -16 -14 -19 -19 -19 -23 -22 -20 -18 -15 -10 -6 -4 -3 -3 -4 -2 -0 -1 -2 -3 -3 -3 -1 2 2 2 2 1 1 1 1 0 0 0
-7 -8 -9 -8 -9 -15 -16 -15 -13 -12 -12 -11 -10 -11 -11 -10 -10 -16 -17 -14 -13 -13 -19 -22 -20 -18 -16 -14 -10 -6 -5 -5 -4 -5 -5 -2 -1 -1 -1 -1 -1 -2 -2 -0 2 3 2 2 1 1 1 1 1 0
-7 -7 -9 -9 -9 -9 -10 -12 -10 -9 -9 -11 -11 -11 -10 -10 -9 -13 -13 -12 -13 -15 -17 -16 -15 -12 -9 -6 -5 -5 -4 -4 -4 -4 -3 -1 -1 -0 -0 -0 -1 -1 -1 0 2 3 2 2 2 2 1 1 1 1
Wind_Speed
12 10 9 9 8 8 8 9 9 8 8 8 7 7 8 10 13 13 9 7 8 10 23 11 8 11 12 8 5 4 4 4 3 4 3 3 3 3 3 4 5 5 5 3 3 3 3 4 4 2 9 12 12 12
17 16 14 11 9 8 9 9 8 8 8 8 8 8 8 10 12 15 7 11 14 13 16 24 23 22 24 26 19 6 6 1 1 2 1 3 3 4 5 4 2 4 1 4 5 5 8 10 16 13 12 13 12 13
11 11 11 11 9 10 10 9 8 8 8 8 8 8 9 10 12 15 15 17 12 12 18 12 10 5 12 11 13 6 1 4 1 0 3 2 3 2 4 4 5 4 2 6 7 9 14 17 16 13 14 15 14 13
9 9 10 9 6 8 9 9 8 8 8 8 8 8 10 10 11 14 16 13 12 7 5 6 10 15 12 7 12 18 9 6 3 1 2 2 3 1 2 4 4 2 10 9 14 14 17 13 14 16 17 16 17 15
10 11 12 9 8 7 8 9 8 8 8 8 8 9 10 11 12 14 12 2 6 9 6 14 19 7 3 3 8 12 12 7 3 3 2 3 4 4 3 3 4 8 8 7 7 22 7 17 15 16 18 17 16 16
8 8 9 8 8 7 7 8 8 8 8 8 9 9 10 11 12 13 2 6 5 12 6 4 8 5 6 2 5 9 8 7 3 1 4 4 3 1 3 3 5 6 9 13 25 18 21 21 18 16 19 17 16 16
9 8 11 9 8 8 8 8 8 8 8 9 9 10 10 11 13 5 6 10 20 11 5 6 5 5 4 3 2 5 8 3 1 3 2 4 4 2 2 3 13 14 17 25 24 30 26 22 21 19 19 19 17 16
10 11 13 11 9 8 8 8 8 8 8 9 9 9 11 13 14 11 8 10 7 7 5 3 3 5 2 2 3 5 5 4 2 3 3 3 5 2 2 18 21 21 25 26 27 18 23 24 23 21 20 19 17 16
11 12 13 12 10 8 8 8 7 7 8 8 8 9 12 8 4 3 12 15 11 7 5 3 3 2 4 4 3 3 3 2 2 2 2 4 3 3 14 25 25 30 22 29 21 25 27 26 25 23 21 18 17 16
12 12 15 14 12 10 9 7 6 7 7 6 5 3 3 2 10 15 4 1 3 4 5 4 5 3 5 5 5 4 1 3 3 2 4 3 3 3 25 26 30 26 30 30 31 28 27 26 25 23 21 18 17 16
12 12 16 13 12 10 9 7 7 6 6 2 2 3 8 11 6 2 3 3 2 3 4 4 4 4 2 3 1 0 2 2 3 3 3 4 4 12 25 26 29 23 27 26 22 26 25 26 27 25 22 19 18 18
13 12 15 13 11 10 9 8 8 6 3 2 4 9 7 3 2 2 2 3 3 2 1 2 4 5 4 6 4 1 1 2 2 6 3 3 5 24 31 29 28 28 27 25 24 26 24 24 23 22 22 21 20 19
15 13 16 15 12 10 9 10 10 8 4 2 3 3 2 1 2 3 3 3 1 8 7 10 5 3 5 9 3 2 2 2 7 3 3 3 17 30 34 33 29 29 26 25 25 25 25 24 23 23 23 22 22 21
16 15 15 16 14 12 10 11 10 9 3 2 2 4 3 3 3 1 4 4 4 7 13 15 6 4 3 3 1 2 3 3 3 3 4 5 22 33 35 34 32 32 29 28 28 29 29 27 25 24 22 23 23 22
15 15 15 18 16 14 13 13 12 13 4 3 3 4 4 3 2 2 6 6 5 7 12 12 8 5 3 2 2 3 3 3 4 3 0 7 27 35 36 37 35 34 31 30 31 32 32 30 27 25 24 23 22 22
14 12 17 18 18 16 15 13 17 14 4 3 5 4 5 4 4 3 2 4 8 10 8 4 3 3 4 1 3 4 2 2 1 2 2 9 28 33 35 37 37 36 32 31 34 34 34 32 29 26 25 24 23 21
17 17 17 19 19 17 16 20 16 8 6 5 6 8 7 6 5 1 1 4 10 8 4 3 5 4 7 2 2 1 1 4 7 7 1 11 28 33 33 35 37 37 33 33 34 35 34 31 30 28 28 26 24 22
20 18 18 17 19 18 20 19 9 7 7 9 7 9 7 7 6 6 4 4 5 5 5 3 2 3 3 1 3 6 13 16 15 12 9 7 23 30 34 36 38 38 35 34 34 35 35 34 33 30 28 27 25 24
19 18 18 20 25 23 11 10 8 6 9 7 12 9 10 10 10 10 10 8 6 4 5 3 4 3 3 2 7 13 17 21 24 20 11 5 19 29 32 36 38 37 36 37 34 36 37 36 33 30 29 29 27 26
19 18 19 21 27 13 5 5 11 5 6 8 8 10 9 11 11 9 9 8 7 5 6 4 5 3 7 22 25 24 22 22 19 20 9 3 13 23 30 39 38 40 34 37 33 32 32 33 30 28 29 30 29 27
21 20 19 25 25 18 5 4 7 10 8 6 7 9 7 8 11 12 13 13 11 7 10 12 18 20 25 30 23 20 22 18 15 15 15 8 10 17 26 30 34 38 34 33 31 30 34 34 35 33 32 31 29 27
23 24 23 33 6 14 9 6 4 6 7 4 6 6 5 9 13 14 11 14 12 18 20 19 24 26 26 28 24 20 20 21 22 17 14 13 13 19 25 30 33 36 38 35 34 34 38 31 34 35 34 32 30 29
21 28 7 14 5 7 6 14 8 7 5 8 7 4 5 6 6 7 6 11 14 17 20 23 24 24 25 28 26 28 25 22 21 14 10 10 12 16 19 27 32 36 38 37 36 38 41 36 36 38 36 34 33 32
13 16 8 7 6 6 8 8 7 7 6 6 5 4 4 6 5 6 6 14 17 19 21 23 21 22 21 23 26 26 23 17 15 13 13 9 11 14 17 21 27 31 34 37 43 44 38 44 42 39 38 38 36 33
7 7 9 5 6 7 6 8 7 7 5 6 6 4 4 5 3 4 7 13 21 24 22 20 17 18 20 25 25 23 22 17 17 14 13 11 10 11 15 19 22 27 30 32 36 41 47 46 44 42 41 40 38 36
5 7 9 10 10 8 9 7 9 6 5 6 7 5 5 5 4 6 5 11 4 3 2 9 10 10 14 18 22 22 19 15 17 18 16 16 13 14 16 20 22 26 30 34 38 48 52 50 46 43 42 40 39 39
7 6 9 8 9 9 7 5 10 6 7 8 4 6 5 5 6 6 16 12 10 6 6 18 17 16 19 22 24 26 20 19 20 20 16 21 17 17 18 21 24 22 29 38 44 49 49 49 48 47 44 42 40 40
5 12 8 16 9 11 5 8 8 10 6 7 6 8 5 6 6 9 9 17 23 15 28 35 35 30 31 28 27 27 27 25 25 21 24 26 25 22 19 20 20 20 22 26 39 46 48 48 48 46 45 44 41 40
6 11 16 7 6 7 10 9 11 12 14 15 8 8 10 17 18 20 19 21 28 32 39 41 41 38 37 37 35 32 29 22 21 22 23 27 28 29 23 22 22 22 22 21 23 33 44 46 46 45 43 41 39 38
9 17 5 9 5 8 12 16 14 14 13 17 20 22 23 27 36 38 35 34 34 39 45 46 42 41 40 40 42 37 32 28 31 32 31 31 31 27 27 23 18 21 25 24 24 27 32 39 42 44 43 42 42 42
13 15 6 8 6 7 13 15 16 16 17 20 24 25 32 38 41 44 45 47 45 50 50 46 42 40 40 41 41 36 36 35 36 35 32 31 30 27 25 25 23 20 21 27 28 28 28 34 40 42 42 41 39 37
16 14 10 7 5 6 7 8 11 14 21 24 29 29 35 30 37 54 47 39 43 46 43 39 40 41 39 38 34 31 34 36 38 36 36 36 33 30 27 24 22 21 21 24 28 27 27 31 36 41 42 41 38 35
7 7 7 4 4 5 9 8 6 7 15 20 23 27 32 33 30 43 37 31 30 30 32 34 36 34 32 29 28 30 35 39 39 39 38 39 36 30 29 28 26 24 22 24 28 31 30 30 31 34 37 37 36 33
Wind_Direction
253 262 271 285 263 278 252 265 274 275 280 289 277 284 299 314 324 338 332 329 334 290 288 262 283 265 308 294 295 54 195 202 186 193 198 133 150 145 139 127 173 175 171 152 176 130 139 91 189 311 106 105 97 90
245 252 267 272 255 250 259 265 268 273 279 285 282 278 291 306 318 329 331 318 315 266 266 279 286 266 265 275 275 281 326 280 54 153 165 141 136 160 157 152 164 162 1 121 0 81 85 84 97 99 111 114 104 104
248 235 254 272 256 249 262 259 266 272 278 282 283 273 283 298 315 325 324 327 324 289 293 265 271 257 276 281 228 256 165 330 322 150 125 98 113 176 166 128 130 114 121 122 120 100 105 105 101 98 107 108 109 110
239 236 251 269 239 263 260 255 261 271 276 280 282 273 278 294 311 321 324 325 319 289 274 284 308 280 295 256 232 228 265 329 292 308 96 100 111 261 107 107 119 76 139 131 105 124 114 110 108 112 109 111 111 110
252 259 245 237 239 252 264 252 255 269 275 279 280 275 277 293 308 320 325 311 4 2 304 293 306 274 223 283 235 226 235 261 265 216 129 85 107 142 93 139 119 178 155 153 159 163 139 136 125 123 120 118 117 117
251 249 217 217 248 255 260 258 253 265 277 279 280 277 279 294 310 335 291 271 310 343 314 286 310 311 181 339 219 211 211 217 252 41 91 100 127 186 163 95 131 132 143 132 137 141 133 132 129 131 125 124 122 118
247 237 217 231 249 255 255 263 255 264 277 280 280 279 283 293 304 297 288 280 288 305 252 281 278 308 158 259 193 162 180 201 200 109 89 123 137 151 130 108 149 136 129 130 135 133 127 135 137 135 130 128 122 121
253 233 220 231 246 251 253 260 259 261 275 278 281 284 285 292 297 301 296 295 314 298 258 277 282 301 60 227 186 166 163 162 59 108 124 139 144 200 104 131 142 140 138 138 141 143 140 139 137 136 136 132 127 128
246 227 218 226 238 247 252 255 258 258 269 280 285 294 297 282 284 276 299 285 279 256 295 281 310 332 15 212 284 166 175 148 122 137 122 183 154 203 155 152 153 154 152 149 143 142 143 142 143 144 144 144 139 139
233 228 217 222 233 245 248 250 251 256 267 274 302 295 284 273 308 309 314 265 221 230 236 260 277 258 318 158 206 178 150 129 166 94 148 223 148 147 162 160 157 160 155 154 145 150 151 149 152 153 154 150 148 147
223 225 216 223 232 239 239 235 236 246 266 285 290 270 292 310 318 285 286 258 229 241 227 246 275 311 319 289 55 18 123 141 185 137 212 178 181 163 165 162 164 161 159 161 158 155 156 154 155 156 155 156 156 151
217 218 210 214 221 229 225 215 218 209 236 238 286 300 300 316 282 279 256 267 227 292 312 282 285 271 269 266 269 238 157 195 148 151 196 212 177 165 167 167 168 164 164 164 163 157 157 156 159 158 157 159 157 155
213 215 212 215 217 219 211 206 214 205 239 299 293 277 314 270 259 241 239 200 306 355 5 335 313 261 228 231 226 201 176 105 137 192 224 217 161 166 168 168 169 168 166 166 162 160 159 158 160 162 161 162 160 158
215 213 213 214 214 214 206 204 201 184 177 261 268 265 239 206 232 288 346 353 321 320 329 329 266 258 285 235 158 194 76 154 196 218 232 166 173 168 168 171 168 169 170 168 167 167 167 166 165 165 166 166 164 163
206 210 212 211 211 208 201 201 190 180 202 251 249 249 224 274 284 201 285 312 336 328 329 317 272 253 259 243 198 113 158 215 232 253 192 159 170 168 168 172 172 172 171 171 173 173 173 172 173 172 173 172 171 171
204 206 215 209 205 201 196 187 184 190 214 246 238 256 245 277 247 233 251 318 346 340 334 291 284 280 242 249 168 200 194 234 334 317 4 162 173 172 172 174 175 175 174 174 178 178 178 177 178 179 180 180 180 181
201 209 215 205 198 193 189 189 182 195 211 223 236 236 252 287 281 240 338 357 343 352 14 350 330 354 299 225 188 202 294 349 358 1 333 179 180 177 175 175 177 177 177 178 180 183 182 180 181 183 186 188 188 189
210 213 209 196 188 181 190 192 191 212 218 225 232 236 229 246 262 271 291 324 349 355 333 356 288 282 288 304 56 16 11 357 353 340 324 203 181 181 178 178 180 182 181 182 184 185 186 185 187 189 191 193 195 197
205 207 192 184 185 177 177 199 215 212 213 213 221 233 240 256 254 257 267 275 275 274 294 270 264 242 261 66 21 352 351 351 341 336 323 226 188 182 180 183 184 184 186 189 187 191 193 195 193 191 194 198 199 203
210 190 184 187 187 183 204 190 195 220 214 207 211 221 232 246 266 258 262 249 240 234 226 232 244 284 277 298 307 306 311 322 330 341 332 257 191 187 184 186 187 188 187 194 194 195 194 194 196 197 199 204 204 208
188 189 192 185 190 199 194 198 204 216 205 200 212 210 241 247 255 250 251 246 228 230 237 251 269 280 284 298 295 294 298 309 308 311 296 285 213 200 194 191 189 190 189 191 193 195 199 200 201 204 207 209 210 214
193 188 177 190 158 185 219 210 253 192 180 173 182 210 240 247 256 251 250 227 242 246 248 256 268 277 288 292 298 296 292 299 306 307 300 242 222 203 199 196 191 193 195 197 197 202 205 202 207 210 212 214 215 218
187 192 173 168 162 167 173 175 193 189 171 186 181 207 227 236 243 224 235 239 251 253 257 263 276 287 273 276 281 280 285 292 296 296 294 246 231 218 209 202 200 199 197 200 203 208 215 210 212 214 215 216 218 221
187 170 168 150 151 163 164 177 183 180 181 183 182 215 219 223 236 233 248 252 259 266 267 267 268 273 278 275 276 283 291 288 287 280 294 244 226 220 212 209 208 208 208 205 208 211 211 219 222 216 216 220 223 226
180 180 162 151 168 150 166 164 180 182 182 190 197 230 229 210 234 247 257 266 266 266 269 272 269 256 256 264 271 277 285 276 278 272 273 271 228 218 213 211 213 210 207 206 205 207 215 219 221 223 224 223 224 227
193 178 179 170 161 175 172 162 182 174 166 183 214 230 212 215 239 240 240 250 284 115 82 7 345 298 267 267 275 276 275 276 275 267 255 263 259 236 217 211 210 211 207 209 212 217 220 223 225 225 228 230 229 230
167 177 186 185 173 154 155 153 163 169 184 192 200 190 197 220 231 235 251 240 205 206 324 332 320 305 297 295 278 273 273 268 259 261 268 262 266 264 248 233 233 236 219 212 216 221 222 225 226 226 229 232 234 236
181 171 166 173 172 177 158 170 178 187 192 190 190 196 210 211 222 239 250 253 226 264 294 295 302 300 298 291 290 287 279 262 262 259 261 254 256 258 252 247 239 235 233 233 226 225 224 225 226 228 231 234 236 238
180 173 156 171 162 189 202 189 201 205 208 200 209 220 237 241 254 262 263 264 275 283 288 292 289 289 288 288 288 284 276 259 243 240 239 241 243 248 246 247 239 238 237 236 227 228 228 228 228 231 235 238 241 243
181 171 168 175 188 210 207 199 218 218 216 223 237 251 257 259 265 272 273 273 270 277 286 287 283 279 278 279 282 279 263 255 241 236 238 241 237 246 253 247 248 244 236 232 229 227 222 226 229 229 231 235 238 240
170 183 183 184 222 229 220 222 228 236 239 240 241 244 253 264 274 275 273 272 270 278 277 274 271 268 268 270 271 270 261 242 239 237 238 242 244 243 250 248 252 250 245 240 234 230 227 225 223 226 229 232 235 238
183 192 189 194 211 206 198 217 229 236 247 245 249 254 262 266 268 280 281 271 260 258 263 264 263 265 269 270 266 256 250 244 237 231 230 233 233 232 237 249 253 246 248 242 237 232 228 227 224 223 225 229 232 235
184 180 187 200 213 213 204 199 233 251 242 250 254 255 258 256 264 271 274 266 259 260 260 263 269 271 263 256 253 250 245 239 233 230 230 231 234 234 238 244 245 246 248 241 232 228 226 226 225 222 223 226 229 234
Height
1530 1531 1531 1531 1532 1532 1533 1534 1534 1534 1534 1534 1533 1533 1533 1532 1530 1529 1528 1525 1525 1519 1507 1503 1502 1499 1497 1494 1483 1483 1482 1480 1478 1476 1476 1482 1483 1489 1491 1493 1497 1498 1502 1507 1508 1510 1524 1522 1521 1522 1530 1534 1535 1537
1526 1527 1528 1529 1529 1530 1531 1531 1532 1532 1532 1531 1531 1531 1531 1530 1528 1527 1526 1523 1520 1517 1505 1499 1495 1494 1495 1493 1496 1488 1482 1479 1478 1476 1479 1482 1484 1491 1489 1496 1501 1503 1502 1506 1509 1514 1523 1524 1526 1530 1533 1535 1538 1540
1522 1523 1525 1526 1526 1527 1528 1529 1529 1530 1529 1529 1529 1529 1529 1528 1527 1525 1522 1519 1516 1509 1499 1494 1490 1489 1488 1488 1490 1490 1482 1482 1481 1479 1479 1480 1483 1488 1489 1491 1498 1506 1508 1509 1510 1524 1527 1529 1532 1534 1537 1539 1542 1544
1520 1521 1522 1523 1524 1525 1526 1527 1527 1527 1527 1527 1526 1526 1526 1526 1525 1523 1520 1518 1514 1512 1504 1489 1485 1483 1482 1483 1484 1484 1484 1484 1481 1481 1479 1479 1482 1493 1490 1492 1494 1501 1506 1512 1517 1527 1530 1533 1536 1538 1540 1543 1545 1547
1517 1518 1519 1520 1522 1523 1523 1524 1525 1525 1525 1525 1524 1524 1524 1523 1522 1520 1518 1516 1513 1515 1506 1490 1483 1479 1479 1480 1481 1482 1482 1484 1483 1480 1478 1481 1488 1490 1495 1494 1499 1502 1506 1505 1511 1522 1522 1534 1538 1541 1543 1546 1548 1550
1514 1515 1516 1518 1520 1521 1521 1522 1522 1523 1523 1522 1522 1521 1521 1521 1519 1518 1518 1516 1513 1512 1508 1494 1483 1477 1476 1479 1479 1479 1481 1483 1483 1480 1482 1486 1488 1489 1487 1491 1501 1503 1505 1506 1512 1521 1527 1534 1539 1543 1545 1548 1550 1551
1511 1512 1514 1516 1518 1519 1519 1520 1520 1520 1520 1520 1519 1519 1519 1518 1517 1519 1519 1515 1512 1511 1507 1496 1484 1477 1477 1478 1480 1480 1480 1481 1482 1481 1483 1485 1488 1489 1487 1491 1501 1504 1507 1511 1517 1522 1530 1536 1540 1544 1546 1549 1551 1552
1508 1510 1512 1514 1516 1517 1517 1517 1518 1518 1518 1518 1517 1517 1516 1515 1514 1513 1512 1509 1508 1506 1502 1496 1486 1480 1480 1478 1477 1478 1479 1480 1481 1483 1484 1484 1489 1489 1490 1494 1501 1505 1510 1515 1520 1526 1530 1535 1541 1545 1547 1549 1552 1553
1505 1507 1509 1512 1514 1515 1515 1516 1516 1517 1516 1516 1516 1515 1513 1511 1511 1511 1509 1507 1507 1509 1501 1495 1486 1481 1481 1478 1478 1478 1478 1478 1482 1481 1483 1485 1485 1484 1488 1494 1500 1504 1509 1515 1522 1527 1532 1536 1541 1545 1547 1550 1552 1554
1502 1504 1507 1509 1511 1513 1514 1515 1515 1515 1515 1515 1515 1514 1512 1511 1509 1507 1505 1504 1503 1501 1499 1494 1490 1484 1483 1479 1478 1477 1477 1477 1477 1484 1485 1483 1481 1488 1490 1495 1499 1504 1509 1514 1520 1528 1532 1537 1540 1543 1547 1551 1552 1553
1499 1501 1504 1507 1509 1511 1512 1513 1514 1515 1515 1515 1515 1514 1511 1509 1507 1506 1505 1503 1499 1497 1494 1492 1490 1485 1483 1480 1474 1476 1474 1477 1475 1481 1481 1479 1480 1485 1491 1496 1501 1507 1512 1518 1523 1527 1532 1535 1537 1542 1547 1550 1551 1553
1496 1499 1502 1504 1507 1509 1510 1512 1513 1515 1516 1516 1515 1513 1510 1509 1508 1507 1502 1501 1498 1492 1491 1490 1489 1487 1485 1482 1478 1476 1473 1477 1474 1482 1480 1476 1474 1480 1488 1495 1501 1507 1513 1519 1524 1528 1533 1536 1540 1543 1546 1548 1551 1554
1494 1497 1499 1502 1505 1507 1509 1511 1512 1514 1515 1516 1515 1513 1511 1510 1508 1504 1498 1490 1493 1496 1494 1493 1489 1484 1482 1481 1477 1474 1473 1476 1481 1479 1474 1468 1471 1478 1486 1493 1500 1507 1513 1519 1524 1529 1532 1536 1540 1543 1545 1549 1551 1554
1491 1494 1497 1500 1503 1506 1508 1510 1512 1515 1517 1517 1515 1512 1509 1505 1503 1500 1499 1500 1501 1498 1495 1491 1487 1482 1477 1475 1474 1471 1478 1479 1478 1475 1465 1463 1469 1475 1483 1491 1497 1504 1511 1517 1521 1526 1531 1535 1540 1544 1548 1550 1552 1555
1488 1491 1494 1497 1501 1504 1507 1509 1512 1515 1517 1516 1515 1509 1503 1502 1504 1505 1503 1501 1500 1497 1496 1492 1487 1482 1476 1474 1473 1476 1479 1474 1469 1461 1460 1462 1466 1472 1480 1487 1495 1502 1509 1515 1519 1525 1530 1535 1539 1544 1547 1550 1553 1556
1486 1489 1491 1495 1499 1502 1506 1509 1512 1514 1515 1515 1512 1507 1503 1503 1501 1503 1503 1500 1499 1497 1494 1492 1488 1479 1475 1471 1471 1470 1470 1469 1461 1461 1463 1463 1467 1472 1478 1485 1492 1499 1506 1512 1518 1523 1528 1533 1538 1543 1547 1550 1553 1556
1483 1484 1487 1492 1497 1502 1505 1507 1510 1512 1512 1509 1505 1504 1504 1503 1502 1501 1503 1502 1499 1497 1496 1495 1491 1485 1484 1470 1469 1469 1469 1467 1466 1465 1463 1463 1466 1471 1477 1484 1491 1498 1504 1510 1516 1521 1527 1533 1537 1541 1545 1548 1552 1555
1478 1481 1486 1490 1496 1500 1503 1506 1508 1507 1505 1504 1503 1501 1502 1502 1501 1502 1502 1503 1503 1500 1499 1497 1497 1492 1484 1469 1471 1479 1476 1473 1470 1468 1466 1465 1466 1471 1476 1482 1489 1496 1503 1509 1514 1520 1525 1529 1533 1539 1544 1547 1551 1553
1475 1479 1484 1488 1492 1497 1500 1503 1503 1501 1500 1499 1499 1500 1500 1499 1499 1499 1500 1501 1501 1502 1500 1497 1493 1487 1484 1480 1482 1481 1479 1477 1472 1468 1466 1466 1468 1470 1475 1482 1488 1495 1501 1507 1512 1516 1521 1527 1531 1536 1540 1543 1547 1550
1473 1479 1483 1486 1491 1495 1496 1496 1498 1498 1496 1495 1496 1497 1497 1496 1496 1496 1497 1498 1499 1499 1497 1492 1486 1484 1485 1482 1484 1482 1480 1478 1474 1470 1468 1468 1470 1471 1474 1478 1484 1492 1499 1505 1511 1515 1519 1524 1529 1532 1536 1540 1543 1546
1472 1476 1480 1484 1487 1491 1492 1491 1491 1490 1492 1492 1492 1493 1492 1492 1491 1491 1492 1493 1494 1491 1488 1485 1483 1483 1481 1478 1479 1478 1477 1476 1474 1473 1471 1470 1470 1473 1475 1478 1484 1489 1495 1500 1505 1510 1514 1519 1523 1527 1531 1535 1539 1542
1467 1472 1475 1480 1482 1485 1488 1488 1488 1487 1489 1488 1490 1490 1488 1487 1485 1485 1486 1485 1483 1481 1481 1481 1478 1477 1473 1470 1472 1473 1472 1470 1468 1468 1465 1466 1468 1469 1471 1475 1479 1483 1489 1494 1499 1504 1509 1515 1519 1523 1527 1531 1535 1537
1465 1469 1470 1474 1478 1479 1482 1483 1485 1485 1484 1484 1487 1487 1485 1483 1480 1481 1479 1475 1474 1474 1472 1471 1470 1468 1468 1468 1466 1467 1466 1466 1465 1464 1464 1463 1464 1466 1468 1471 1475 1479 1483 1488 1494 1499 1505 1509 1512 1517 1522 1525 1529 1532
1461 1464 1465 1466 1470 1474 1476 1477 1479 1480 1480 1480 1481 1480 1478 1477 1475 1474 1471 1469 1467 1467 1465 1464 1465 1463 1462 1461 1458 1460 1461 1461 1460 1460 1460 1460 1460 1461 1464 1467 1471 1475 1479 1484 1487 1492 1497 1501 1506 1511 1514 1518 1522 1525
1458 1459 1459 1461 1464 1468 1470 1470 1472 1473 1475 1473 1474 1474 1472 1473 1471 1466 1464 1463 1460 1457 1457 1457 1458 1458 1459 1455 1454 1455 1456 1456 1455 1455 1455 1455 1456 1457 1459 1462 1464 1468 1473 1478 1480 1484 1488 1493 1498 1503 1507 1511 1515 1518
1448 1450 1452 1452 1457 1458 1460 1464 1466 1466 1467 1469 1470 1468 1468 1468 1465 1460 1456 1455 1454 1452 1452 1453 1454 1453 1452 1451 1449 1448 1450 1452 1451 1450 1451 1450 1451 1452 1453 1455 1456 1458 1462 1467 1471 1474 1479 1484 1490 1496 1500 1504 1508 1511
1441 1443 1445 1445 1446 1448 1452 1454 1457 1459 1461 1462 1461 1463 1463 1462 1456 1451 1449 1448 1449 1447 1446 1448 1449 1450 1448 1445 1443 1441 1444 1445 1445 1444 1447 1446 1447 1447 1447 1447 1448 1450 1453 1455 1459 1463 1469 1476 1482 1486 1491 1496 1499 1502
1433 1434 1437 1440 1442 1443 1445 1447 1449 1451 1451 1452 1453 1453 1452 1448 1445 1443 1443 1443 1443 1443 1442 1442 1442 1441 1440 1437 1436 1434 1434 1436 1436 1438 1438 1439 1441 1441 1441 1442 1444 1446 1447 1448 1452 1456 1461 1466 1471 1477 1482 1486 1491 1495
1429 1429 1433 1436 1438 1439 1438 1439 1438 1438 1437 1440 1441 1440 1439 1438 1438 1438 1439 1440 1438 1437 1435 1432 1431 1431 1429 1428 1426 1426 1427 1429 1430 1430 1431 1431 1432 1434 1436 1436 1438 1439 1441 1442 1444 1447 1453 1458 1464 1470 1475 1479 1484 1487
1423 1425 1427 1428 1430 1428 1426 1428 1428 1430 1432 1433 1434 1433 1432 1430 1427 1428 1428 1428 1426 1424 1422 1421 1419 1419 1417 1417 1413 1413 1414 1417 1419 1422 1422 1423 1424 1428 1430 1432 1433 1434 1436 1437 1439 1441 1445 1449 1455 1460 1465 1469 1473 1477
1418 1421 1423 1424 1423 1421 1422 1423 1424 1425 1426 1426 1425 1424 1419 1416 1414 1413 1413 1411 1410 1408 1405 1401 1400 1401 1402 1402 1403 1403 1401 1405 1408 1411 1414 1416 1419 1422 1424 1427 1429 1429 1430 1432 1433 1435 1438 1441 1446 1451 1455 1460 1464 1469
1413 1414 1415 1416 1417 1417 1418 1419 1419 1419 1417 1416 1412 1411 1407 1407 1399 1387 1392 1392 1388 1385 1382 1385 1384 1382 1388 1389 1390 1391 1393 1395 1397 1401 1404 1407 1410 1414 1417 1420 1422 1423 1424 1425 1427 1430 1432 1434 1437 1441 1447 1452 1457 1461
1409 1410 1412 1413 1413 1413 1413 1415 1413 1409 1406 1402 1399 1398 1395 1392 1384 1374 1372 1372 1370 1368 1368 1370 1371 1373 1373 1374 1376 1379 1382 1384 1387 1390 1393 1398 1402 1406 1410 1412 1415 1416 1418 1419 1420 1423 1425 1428 1431 1435 1440 1445 1450 1455